Mullan Pass, ID

2:51 PM PDT on October 18, 2019 (GMT -0700)
Mullan Pass

Weather History for KMLP - August, 2019

Change the Weather History Date:

Tuesday, August 20, 2019

  Actual Average (K3TH) Record (K3TH)
Temperature  
Mean Temperature 67 °F -  
Max Temperature 78 °F 83 °F 96 °F (1999)
Min Temperature 57 °F 52 °F 48 °F (1998)
Cooling Degree Days 2    
Growing Degree Days 17 (Base 50)    
Moisture  
Dew Point 38 °F    
Average Humidity 35    
Maximum Humidity 51    
Minimum Humidity 22    
Precipitation  
Precipitation 0.00 in - - ()
Sea Level Pressure  
Sea Level Pressure 29.91 in    
Wind  
Wind Speed 4 mph (SE)    
Max Wind Speed 7 mph    
Max Gust Speed -    
Visibility 10 miles    
Events      
Averages and records for this station are not official NWS values.
T = Trace of Precipitation, MM = Missing Value Source: NWS Daily Summary

Daily Weather History Graph

Daily Weather History Graph

Search for Another Location

Airport or City:

Astronomy

Aug. 20, 2019 Rise Set
Actual Time 5:45 AM PDT 7:45 PM PDT
Civil Twilight 5:12 AM PDT 8:18 PM PDT
Nautical Twilight 4:31 AM PDT 8:59 PM PDT
Astronomical Twilight 3:45 AM PDT 9:44 PM PDT
Moon 10:16 PM PDT (8/20) 10:45 AM PDT (8/20)
Length of Visible Light 15h 06m
Length of Day
14h 00m
Waning Gibbous, 77% of the Moon is Illuminated
Aug 20
Waning Gibbous
Aug 23
Last Quarter
Aug 30
New
Sep 5
First Quarter
Sep 13
Full

Hourly Weather History & Observations

Time (PDT) Temp. Dew Point Humidity Pressure Visibility Wind Dir Wind Speed Gust Speed Precip Events Conditions
12:53 AM 60.1 °F 37.9 °F 44% 29.88 in 10.0 mi SSE 4.6 mph - N/A   Clear
1:53 AM 60.1 °F 39.0 °F 46% 29.88 in 10.0 mi SSE 4.6 mph - N/A   Clear
2:53 AM 60.1 °F 37.9 °F 44% 29.88 in 10.0 mi SSE 4.6 mph - N/A   Clear
3:53 AM 59.0 °F 39.9 °F 49% 29.89 in 10.0 mi SE 5.8 mph - N/A   Clear
4:53 AM 57.9 °F 39.9 °F 51% 29.89 in 10.0 mi SE 5.8 mph - N/A   Clear
5:53 AM 59.0 °F 39.9 °F 49% 29.89 in 10.0 mi SE 5.8 mph - N/A   Clear
6:53 AM 57.9 °F 39.9 °F 51% 29.92 in 10.0 mi SSE 5.8 mph - N/A   Clear
7:53 AM 61.0 °F 41.0 °F 48% 29.94 in 10.0 mi SSE 3.5 mph - N/A   Clear
8:53 AM 63.0 °F 43.0 °F 48% 29.94 in 10.0 mi SE 5.8 mph - N/A   Clear
9:53 AM 66.9 °F 39.9 °F 37% 29.92 in 10.0 mi Variable 3.5 mph - N/A   Unknown
10:53 AM 68.0 °F 43.0 °F 40% 29.93 in - Calm Calm - N/A   Unknown
11:53 AM 71.1 °F 41.0 °F 34% 29.92 in 10.0 mi Variable 4.6 mph - N/A   Clear
12:53 PM 73.9 °F 39.0 °F 28% 29.90 in 10.0 mi Calm Calm - N/A   Clear
1:53 PM 77.0 °F 36.0 °F 23% 29.89 in 10.0 mi Variable 3.5 mph - N/A   Clear
2:53 PM 75.9 °F 37.0 °F 24% 29.89 in 10.0 mi Variable 3.5 mph - N/A   Clear
3:53 PM 75.9 °F 36.0 °F 23% 29.88 in 10.0 mi Variable 4.6 mph - N/A   Clear
4:53 PM 75.9 °F 36.0 °F 23% 29.88 in 10.0 mi Calm Calm - N/A   Clear
5:53 PM 75.0 °F 36.0 °F 24% 29.88 in 10.0 mi Calm Calm - N/A   Clear
6:53 PM 72.0 °F 37.0 °F 28% 29.89 in 10.0 mi Calm Calm - N/A   Clear
7:53 PM 71.1 °F 34.0 °F 26% 29.89 in 10.0 mi Calm Calm - N/A   Clear
8:53 PM 72.0 °F 30.9 °F 22% 29.88 in 10.0 mi Calm Calm - N/A   Clear
9:53 PM 70.0 °F 33.1 °F 26% 30.19 in 10.0 mi ESE 4.6 mph - N/A   Clear
10:53 PM 68.0 °F 35.1 °F 30% 29.87 in 10.0 mi ESE 5.8 mph - N/A   Clear
11:53 PM 68.0 °F 37.9 °F 33% 29.86 in 10.0 mi ESE 6.9 mph - N/A   Clear